Regional Weather Roundup
Issued by NWS Grand Forks, ND

Home | Current Version | Previous Version | Text Only | Print | Product List | Glossary Off
Versions: 1 2 3 4 5 6 7 8 9 10 11 12 13 14 15 16 17 18 19 20 21 22 23 24 25 26 27 28 29 30 31 32 33 34 35 36 37 38 39 40 41 42 43 44 45 46 47 48 49 50

000
ASUS43 KFGF 290531
RWRFGF
PRAIRIE TO PINES  WEATHER ROUNDUP
NATIONAL WEATHER SERVICE EASTERN NORTH DAKOTA/GRAND FORKS ND
1200 AM CDT SAT AUG 29 2015

 **SATELLITE DATA USED TO AUGMENT SKY COVER AT AUTOMATED STATIONS**
 *****  WEATHER ACROSS EASTERN NORTH DAKOTA  *****

CITY           SKY/WX    TMP DP  RH WIND       PRES   REMARKS
GRAND FORKS    CLEAR     68  66  93 S5        29.87R
GRAND FRKS AFB CLEAR     66  64  94 CALM      29.88R
GRAND FRKS NWS   N/A     68 N/A N/A S5          N/A
DEVILS LAKE    CLEAR     64  57  77 CALM      29.88F
FARGO          CLEAR     70  63  78 S16       29.91F
WAHPETON ARPT  CLEAR     63  59  88 S9        29.97S
$$

 ***** WEATHER ACROSS CENTRAL AND WESTERN NORTH DAKOTA  *****

CITY           SKY/WX    TMP DP  RH WIND       PRES   REMARKS
BISMARCK       CLEAR     69  66  90 SE6       29.92R
MINOT          CLOUDY    67  62  84 S3        29.89R
JAMESTOWN      CLEAR     68  66  93 S7        29.91S
MINOT AFB      PTCLDY    63  63 100 S6        29.87S
GARRISON         N/A     63  30  28 CALM      29.91S
WILLISTON      CLEAR     62  48  60 CALM      29.92S HAZE
DICKINSON      MOCLDY    63  49  60 W3        29.97S
HETTINGER      CLOUDY    54  50  86 NW3       30.02R FOG
$$

 *****  OTHER AIRPORT OBSERVATIONS IN OUR AREA  *****

CITY           SKY/WX    TMP DP  RH WIND       PRES   REMARKS
WALHALLA       FAIR      64  64 100 MISG      29.89R FOG
GRAFTON AIRPOR FAIR      66  66 100 CALM      29.88R
VALLEY CITY AR CLOUDY    68  68 100 SW13      29.92S
CANDO          FAIR      61  59  94 CALM      29.90S
CAVALIER APRT  FAIR      64  64 100 W5        29.88R FOG
GWINNER          N/A     66  66 100 S9        29.95S
SHEYENNE NWR     N/A     66  64  94 S5        29.95S
ROLLA          CLOUDY    55  55 100 NW3       29.93S
 ***** THE ABOVE OBSERVATIONS ARE NON NWS ARE NOT QUALITY
       CONTROLLED AND MAY MIS-REPORT RAIN FOR SNOW...
$$

  *****  WEATHER ACROSS NORTHERN MINNESOTA  *****

CITY           SKY/WX    TMP DP  RH WIND       PRES   REMARKS
FLAG ISLAND    CLEAR     66  66 100 CALM      29.87R
WARROAD        CLEAR     66  63  88 SW5       29.90R
ROSEAU         CLEAR     66  63  88 SW5       29.89R
HALLOCK        FOG       64  63  94 CALM      29.87R VSB 3/4
THF RVR FALLS  CLEAR    N/A N/A N/A S10       29.90R
BAUDETTE       MOCLDY    69  65  86 W3        29.89S
WASKISH        CLEAR     70  64  83 SW7       29.91F
CROOKSTON      CLEAR     70  66  88 S9        29.91R
STEPHEN NDAWN    N/A     66  66 100 S3          N/A
GREENBUSH NDAW   N/A     64  63  94 CALM        N/A
$$
  *****  WEATHER ACROSS CENTRAL AND WEST MINNESOTA  *****

CITY           SKY/WX    TMP DP  RH WIND       PRES   REMARKS
FOSSTON        CLEAR     64  61  88 S14       29.95R
BEMIDJI        CLEAR     67  63  86 SW8       29.95F
PARK RAPIDS    CLEAR     66  61  84 SW9       29.99R
ELBOW LAKE     FAIR      61  60  96 S9        30.00S
WADENA         CLEAR     63  61  94 S6        30.00R
DETROIT LAKES  CLEAR     66  61  82 S8        29.99R
MOORHEAD       CLEAR     68  63  83 S13       29.94R
FERGUS FALLS   CLEAR     64  64 100 S10       29.98S
MORRIS MN      CLEAR     61  59  94 S8        30.00F
STAPLES        CLEAR     61  59  94 S9        30.00S
$$
  *****  WEATHER ELSEWHERE ACROSS MINNESOTA  *****

CITY           SKY/WX    TMP DP  RH WIND       PRES   REMARKS
DULUTH         PTCLDY    64  59  83 SW14      30.00R
INTRNTL FALLS  CLOUDY    70  65  84 SW7       29.89R
ELY            CLOUDY    64  57  77 E5        30.00R
CLOQUET        CLEAR     63  57  82 S12       30.00F
WHEATON        CLEAR     61  59  94 S9        30.00S
BRAINERD       CLEAR     63  59  87 S9        30.02R
HIBBING        FAIR      67  61  81 S7        29.98R
ALEXANDRIA     CLEAR     63  60  90 S9        30.03S
SAINT CLOUD    CLEAR     58  56  93 S5        30.03S
MINNEAPOLIS    CLEAR     61  55  81 NE5       30.04S
$$

  *****  WEATHER ACROSS SOUTH DAKOTA  *****

CITY           SKY/WX    TMP DP  RH WIND       PRES   REMARKS
SIOUX FALLS    PTCLDY    58  56  93 CALM      30.03S
BROOKINGS      CLEAR     59  55  88 CALM      30.05S
WATERTOWN      CLEAR     62  60  93 S8        30.02R
HURON          CLEAR     66  63  90 S7        30.01R
SISSETON         N/A     63  60  90 S7        29.97F
ABERDEEN       CLEAR     67  63  87 S10       29.97S
MITCHELL       CLEAR     64  62  93 S7        30.03S
PIERRE         CLEAR     68  65  90 SE8       29.99R
MOBRIDGE       CLEAR     69  68  96 SE8       29.94R
RAPID CITY     CLEAR     61  57  87 CALM      30.08R
$$

  *****  SOME WEATHER IN NEARBY STATES *****

CITY           SKY/WX    TMP DP  RH WIND       PRES   REMARKS
GLASGOW MT     CLOUDY    67  41  38 E10       29.90F HAZE
GREAT FALLS MT CLOUDY    75  41  29 SW9       29.98F HAZE
CHEYENNE WY    CLEAR     56  45  66 W8        30.32R
SCOTTSBLUFF NE CLEAR     64  51  62 CALM      30.16S
OMAHA NE       CLOUDY    64  63  96 N10       29.96R FOG
DES MOINES IA  CLOUDY    71  67  87 S8        29.91R
DAVENPORT IA   LGT RAIN  66  64  93 SE8       30.01S
CHICAGO IL     CLOUDY    70  63  78 NE5       30.08R
EAU CLAIRE WI  CLEAR     55  53  93 NE5       30.04F
LA CROSSE WI   CLOUDY    60  57  89 SE5       30.00F
$$

  *****  SOME NATIONAL WEATHER *****

CITY           SKY/WX    TMP DP  RH WIND       PRES   REMARKS
LA GUARDIA NY  PTCLDY    73  56  54 E3        30.19S
RALEIGH NC     MOCLDY    68  61  78 CALM      30.21R
ATLANTA GA     CLOUDY    75  67  76 SE6       30.17S
NEW ORLEANS LA PTCLDY    79  65  62 E6        30.01F
OKLAHOMA CITY  MOCLDY    74  67  78 S7        29.97S
ALBUQUERQUE NM MOCLDY    76  47  35 E25G37    30.23R
SALT LAKE CITY PTCLDY    80  38  22 S12       30.05S
LOS ANGELES CA CLEAR     76  66  71 SW7       29.86R
BOISE ID       CLOUDY    80  42  25 E7        29.85F
SEATTLE WA     LGT RAIN  67  59  75 N9        29.77F
$$

*** WEATHER ACROSS MANITOBA...SASKATCHEWAN AND ONTARIO ***
                ***ONTARIO***

CITY           SKY/WX    TMP DP  RH WIND       PRES   REMARKS
GERALDTON      LGT RAIN  57  57 100 S5        29.91S FOG
THUNDER BAY    TSTM      61  61 100 S10       29.93F
SIOUX LOOKOUT  MOCLDY    64  63  94 SE3       29.86F
TORONTO        MOCLDY    61  55  82 W6        30.16R
BIG TROUT LK   CLEAR     59  55  88 SE6       29.83S
PICKLE LAKE    NOT AVBL
DRYDEN         CLEAR     64  63  94 S7        29.87S
KENORA         PTCLDY    68  64  88 W5        29.88S
$$
                *** MANITOBA***

CITY           SKY/WX    TMP DP  RH WIND       PRES   REMARKS
BRANDON        PTCLDY    61  61 100 E6        29.90S
DAUPHIN        CLEAR     59  54  82 SW5       29.85F
ISLAND LAKE    PTCLDY    63  59  88 S3        29.80R
PILOT MOUND      N/A     66  64  94 E6          N/A
THE PAS        PTCLDY    64  55  72 S6        29.76S
THOMPSON       PTCLDY    61  54  77 W6        29.68S
WINNIPEG       CLEAR     64  63  94 NW2       29.87S
LYNN LAKE      PTCLDY    59  45  58 MISG      29.67F
CHURCHILL      LGT RAIN  57  54  88 S8        29.60F
$$
                ***SASKATCHEWAN***

CITY           SKY/WX    TMP DP  RH WIND       PRES   REMARKS
ESTEVAN        MOCLDY    59  55  88 SW7       29.88F SMOKE
KINDERSLEY     CLOUDY    68  48  49 SE9       29.76F
LLOYDMINSTER   CLOUDY    64  55  72 S9        29.68F
PRINCE ALBERT  CLOUDY    66  59  77 S5        29.74F
REGINA         PTCLDY    61  54  77 S7        29.86R
YORKTON        CLEAR     64  59  82 S7        29.85F
N. BATTLEFORD  CLOUDY    64  55  72 E9        29.73F
LA RONGE       CLEAR     61  52  72 CALM      29.69F
SASKATOON      CLOUDY    70  63  78 S9        29.77F
SWIFT CURRENT  CLEAR     72  45  37 S15       29.85S HAZE
$$
NOTE: THESE ARE AUTOMATED STATIONS WITH LIMITED QUALITY CONTROL
      "FAIR" INDICATES FEW OR NO CLOUDS BELOW 12,000 FEET WITH NO
      SIGNIFICANT WEATHER AND/OR OBSTRUCTIONS TO VISIBILITY.
      SKY/WX - SKY CONDITION AND SIGNIFICANT WEATHER.
      TMP - AIR TEMPERATURE.    DP   - DEWPOINT TEMPERATURE.
      RH  - RELATIVE HUMIDITY.  PRES - PRESSURE.
      HX  - HEAT INDEX.         WCI  - WIND CHILL INDEX.
$



USA.gov is the U.S. government's official web portal to all federal, state and local government web resources and services.